Ashtabula, OH

4:40 AM EDT on October 14, 2019 (GMT -0400)
Ashtabula County

Weather History for KHZY - May, 2019

Change the Weather History Date:

Friday, May 17, 2019

  Actual Average (KGKJ) Record (KGKJ)
Temperature  
Mean Temperature 60 °F -  
Max Temperature 66 °F 71 °F 89 °F (1962)
Min Temperature 52 °F 44 °F 29 °F (1956)
Degree Days  
Heating Degree Days 6    
Growing Degree Days 10 (Base 50)    
Moisture  
Dew Point 52 °F    
Average Humidity 75    
Maximum Humidity 96    
Minimum Humidity 54    
Precipitation  
Precipitation 0.01 in - - ()
Sea Level Pressure  
Sea Level Pressure 29.84 in    
Wind  
Wind Speed 8 mph (WNW)    
Max Wind Speed 13 mph    
Max Gust Speed 17 mph    
Visibility 9 miles    
Events      
Averages and records for this station are not official NWS values.
T = Trace of Precipitation, MM = Missing Value Source: NWS Daily Summary

Daily Weather History Graph

Daily Weather History Graph

Search for Another Location

Airport or City:

Astronomy

May. 17, 2019 Rise Set
Actual Time 6:01 AM EDT 8:37 PM EDT
Civil Twilight 5:29 AM EDT 9:09 PM EDT
Nautical Twilight 4:49 AM EDT 9:49 PM EDT
Astronomical Twilight 4:04 AM EDT 10:35 PM EDT
Moon 7:22 PM EDT (5/17) 5:34 AM EDT (5/17)
Length of Visible Light 15h 40m
Length of Day
14h 36m
Waxing Gibbous, 98% of the Moon is Illuminated
May 17
Waxing Gibbous
May 18
Full
May 26
Last Quarter
Jun 3
New
Jun 10
First Quarter

Hourly Weather History & Observations

Time (EDT) Temp. Dew Point Humidity Pressure Visibility Wind Dir Wind Speed Gust Speed Precip Events Conditions
12:53 AM 66.0 °F 48.9 °F 54% 29.74 in 10.0 mi SSW 10.4 mph - N/A   Overcast
1:53 AM 66.0 °F 50.0 °F 56% 29.72 in 10.0 mi SSW 12.7 mph - N/A   Mostly Cloudy
2:53 AM 63.0 °F 50.0 °F 63% 29.70 in 10.0 mi SSW 6.9 mph - N/A   Partly Cloudy
3:53 AM 63.0 °F 52.0 °F 67% 29.72 in 10.0 mi SW 6.9 mph - N/A   Overcast
4:53 AM 62.1 °F 53.1 °F 72% 29.73 in 10.0 mi SW 4.6 mph - N/A   Overcast
5:53 AM 61.0 °F 54.0 °F 78% 29.75 in 10.0 mi South 3.5 mph - N/A   Overcast
6:09 AM 61.0 °F 54.0 °F 78% 29.76 in 10.0 mi Calm Calm - N/A   Overcast
6:53 AM 62.1 °F 55.9 °F 80% 29.75 in 10.0 mi Calm Calm - N/A   Overcast
7:53 AM 62.1 °F 59.0 °F 90% 29.77 in 10.0 mi SW 4.6 mph - 0.01 in   Overcast
8:31 AM 63.0 °F 61.0 °F 93% 29.79 in 10.0 mi WNW 9.2 mph - N/A   Overcast
8:45 AM 62.1 °F 60.1 °F 93% 29.80 in 7.0 mi NW 10.4 mph 17.3 mph N/A   Overcast
8:53 AM 60.1 °F 59.0 °F 96% 29.79 in 3.0 mi NW 9.2 mph - N/A   Overcast
9:08 AM 60.1 °F 59.0 °F 96% 29.80 in 2.5 mi WNW 6.9 mph - N/A   Overcast
9:43 AM 60.1 °F 59.0 °F 96% 29.80 in 1.5 mi West 6.9 mph - N/A   Overcast
9:53 AM 60.1 °F 59.0 °F 96% 29.79 in 2.5 mi West 12.7 mph - N/A   Overcast
10:02 AM 61.0 °F 59.0 °F 93% 29.80 in 4.0 mi WNW 8.1 mph - N/A   Overcast
10:53 AM 60.1 °F 57.9 °F 93% 29.80 in 6.0 mi NNW 4.6 mph - N/A   Overcast
11:38 AM 63.0 °F 55.9 °F 78% 29.83 in 10.0 mi NNW 9.2 mph - N/A   Overcast
11:53 AM 63.0 °F 55.0 °F 75% 29.83 in 10.0 mi NW 9.2 mph - N/A   Overcast
12:15 PM 62.1 °F 53.1 °F 72% 29.85 in 10.0 mi NW 10.4 mph - N/A   Overcast
12:53 PM 63.0 °F 53.1 °F 70% 29.84 in 10.0 mi WNW 9.2 mph - N/A   Overcast
1:53 PM 62.1 °F 48.9 °F 62% 29.85 in 10.0 mi NW 4.6 mph - N/A   Overcast
2:03 PM 62.1 °F 48.9 °F 62% 29.87 in 10.0 mi NW 8.1 mph - N/A   Overcast
2:30 PM 62.1 °F 48.9 °F 62% 29.88 in 10.0 mi NW 8.1 mph - N/A   Overcast
2:41 PM 62.1 °F 48.0 °F 60% 29.89 in 10.0 mi NW 10.4 mph - N/A   Overcast
2:49 PM 60.8 °F 48.2 °F 63% 29.89 in 10.0 mi NW 8.1 mph - N/A   Overcast
2:53 PM 60.1 °F 48.0 °F 64% 29.89 in 10.0 mi NNW 10.4 mph - N/A   Overcast
3:53 PM 57.9 °F 46.9 °F 67% 29.90 in 10.0 mi WNW 6.9 mph - N/A   Overcast
4:53 PM 55.9 °F 46.0 °F 69% 29.90 in 10.0 mi NW 5.8 mph - N/A   Overcast
5:53 PM 57.0 °F 46.9 °F 69% 29.90 in 10.0 mi NW 6.9 mph - N/A   Overcast
6:53 PM 57.0 °F 46.0 °F 67% 29.91 in 10.0 mi NNW 5.8 mph - N/A   Mostly Cloudy
7:12 PM 57.0 °F 46.0 °F 67% 29.92 in 10.0 mi NW 4.6 mph - N/A   Mostly Cloudy
7:53 PM 55.9 °F 46.0 °F 69% 29.92 in 10.0 mi WNW 5.8 mph - N/A   Overcast
8:53 PM 55.0 °F 45.0 °F 69% 29.94 in 10.0 mi NNW 4.6 mph - N/A   Overcast
9:53 PM 53.1 °F 44.1 °F 71% 29.94 in 10.0 mi NW 3.5 mph - N/A   Overcast
10:53 PM 53.1 °F 44.1 °F 71% 29.97 in 10.0 mi West 3.5 mph - N/A   Overcast
11:53 PM 52.0 °F 45.0 °F 77% 29.98 in 10.0 mi WSW 4.6 mph - N/A   Scattered Clouds